Theta_e
317 316 324 323 325 325 325 325 326 328 329 330 331 334 337 340 345 347 337 341 345 335 326 320 318 318 317 316 317 323 330 337 340 341 342 343 343 339 338 336 331 324 319 317 317 316 314 316 316
323 321 325 323 326 326 326 325 327 328 332 334 335 336 338 340 342 339 338 342 342 333 326 321 318 318 317 316 316 321 328 335 338 339 339 340 340 336 333 328 321 319 318 315 315 316 318 320 320
328 332 323 322 324 327 326 328 327 329 334 336 337 337 338 340 342 340 339 343 343 337 327 324 318 318 318 316 315 317 324 330 335 338 338 338 337 331 325 320 318 317 316 322 326 325 325 325 323
326 327 322 322 324 324 327 328 329 331 338 337 336 338 338 340 341 340 339 341 343 339 331 328 319 318 318 317 315 315 319 323 327 332 333 334 330 325 319 317 316 314 320 329 331 331 327 327 328
329 326 323 322 322 324 326 327 328 334 336 336 336 337 339 339 341 339 339 343 346 347 341 335 319 318 318 317 316 314 315 318 321 322 325 325 323 319 316 315 313 313 321 329 332 330 327 328 332
327 324 325 324 324 324 325 326 327 331 333 335 336 337 338 338 341 338 339 343 344 346 346 341 332 318 318 318 317 315 314 314 315 317 318 317 316 315 314 313 312 313 322 329 331 329 328 328 329
333 330 327 323 322 323 325 327 326 327 328 333 334 335 338 339 341 339 338 339 341 344 346 345 339 322 318 318 317 316 314 314 314 314 315 315 315 314 313 312 313 314 319 327 331 328 327 328 330
331 331 332 330 329 327 325 326 326 326 327 330 333 335 338 342 340 338 336 337 340 342 346 351 346 338 321 320 319 317 315 314 314 315 314 314 314 313 313 313 314 315 318 326 329 328 329 330 329
325 330 332 330 329 328 327 326 326 327 326 327 330 334 338 338 339 338 335 335 337 340 342 350 352 347 337 338 327 319 317 315 314 314 314 314 314 315 315 314 315 316 318 326 328 329 331 331 331
324 329 330 329 329 329 328 327 326 326 325 328 329 334 337 338 338 338 336 336 337 339 340 346 350 349 341 339 340 331 319 318 316 315 317 316 316 324 323 325 319 324 320 324 327 329 332 333 336
324 328 328 329 329 329 329 328 327 325 325 326 329 334 336 339 340 340 336 336 338 339 341 344 346 348 347 342 340 340 336 330 328 324 326 327 325 326 332 330 330 326 329 325 329 331 333 336 335
321 324 326 328 329 329 330 330 329 327 325 326 328 332 335 336 342 341 338 337 338 339 338 343 343 348 348 346 344 343 344 343 341 338 332 335 333 331 331 333 333 330 331 329 333 334 336 336 337
318 320 323 324 325 326 328 329 329 328 327 327 327 328 335 336 341 339 338 336 335 336 337 341 351 347 347 347 348 344 346 347 344 343 340 335 338 334 333 335 334 334 332 334 330 337 337 338 338
318 318 319 321 323 325 326 327 329 330 329 328 327 328 334 334 335 336 336 335 335 334 335 335 349 348 347 340 347 349 343 345 347 345 344 341 337 339 337 335 336 337 335 336 334 335 339 340 341
317 317 318 319 319 322 324 325 327 329 330 330 330 328 328 335 334 334 334 335 334 333 333 333 333 342 344 343 341 342 351 345 347 347 346 345 342 340 338 339 336 335 338 334 337 333 335 339 341
313 315 318 318 319 320 320 324 325 326 328 330 330 331 330 330 330 331 332 334 335 335 334 335 335 339 339 341 343 347 344 348 349 346 349 348 346 342 342 340 340 338 335 338 334 339 338 338 340
313 312 313 315 318 319 320 322 323 324 325 328 329 330 331 331 332 331 331 333 332 330 330 332 334 335 340 342 340 343 347 348 346 347 347 348 349 345 343 345 342 340 339 335 337 336 335 336 339
313 313 313 313 314 316 319 321 322 323 323 325 327 329 330 333 332 333 335 334 334 334 338 336 337 336 337 342 339 341 344 342 344 344 344 345 348 349 345 345 343 342 339 339 337 336 335 336 338
315 314 314 315 315 315 316 320 321 323 323 323 326 328 328 329 331 333 331 335 334 334 334 334 335 333 336 342 340 341 342 340 342 344 344 345 348 348 347 344 346 341 342 339 337 336 336 336 335
314 314 314 314 314 315 316 317 319 322 322 324 326 326 327 330 332 331 332 336 335 336 335 335 335 335 333 335 337 339 339 338 340 343 345 345 348 348 348 347 345 343 344 339 338 337 336 336 336
313 314 314 313 313 313 314 316 319 319 323 323 324 326 328 328 329 331 335 336 337 334 334 335 334 333 331 331 338 340 335 338 346 346 346 346 347 348 347 345 344 345 342 340 338 337 336 336 337
311 311 312 313 313 312 313 316 319 319 322 323 323 325 326 327 327 327 330 335 335 333 332 335 334 332 331 333 344 342 343 344 345 347 348 348 347 347 347 345 344 346 342 341 340 337 334 335 340
312 312 313 312 313 313 312 313 315 317 319 322 325 325 326 326 327 326 325 328 329 328 327 328 330 334 335 339 340 343 346 345 345 348 349 348 347 347 346 343 342 345 342 341 338 337 337 340 338
314 314 314 313 314 314 312 313 315 316 318 319 322 325 325 326 326 327 328 326 325 325 328 331 333 331 336 337 344 344 347 345 348 349 350 346 345 344 343 342 341 342 341 341 338 337 340 337 336
316 315 317 314 315 314 312 313 316 316 316 317 320 323 324 325 328 328 328 328 328 327 326 327 335 338 341 342 347 341 345 344 353 351 348 345 344 343 342 341 341 342 340 343 341 339 337 338 337
314 318 321 315 312 311 312 313 314 315 316 318 320 321 323 325 326 327 328 330 328 328 328 328 330 340 343 343 341 345 341 352 353 347 345 344 343 342 343 341 343 343 343 340 338 338 338 336 335
315 312 316 318 317 319 312 311 312 314 316 316 320 321 324 324 325 328 328 328 329 328 332 329 331 333 334 340 345 349 350 352 350 347 344 344 343 344 343 344 344 342 341 339 338 337 335 335 334
316 313 316 319 321 315 313 311 312 314 317 316 319 323 323 326 327 330 333 336 335 335 333 331 332 342 347 348 350 351 353 352 351 348 349 347 347 345 345 344 342 340 338 338 336 335 334 332 332
314 315 315 317 317 316 316 314 316 322 321 319 320 322 325 325 325 331 338 339 337 341 345 345 344 348 349 348 349 351 351 352 352 350 347 346 345 344 344 341 338 336 335 335 336 334 334 332 331
312 312 317 313 315 316 315 317 318 318 316 315 316 324 323 326 338 338 339 346 343 343 346 349 349 348 349 349 350 352 350 349 347 345 345 343 342 340 339 337 335 336 334 332 335 333 335 334 334
Wind_Speed
11 9 10 13 6 7 16 19 21 22 10 12 12 1 6 15 20 9 30 30 34 31 31 29 26 24 22 19 18 18 18 17 15 14 13 12 11 10 9 8 7 6 5 4 3 3 3 2 2
7 11 14 6 8 12 14 20 21 19 6 7 6 4 8 2 17 10 16 36 29 30 31 30 26 25 23 20 19 18 18 18 17 16 15 13 12 10 9 8 8 7 5 5 6 5 4 3 2
10 16 7 5 12 16 17 19 16 6 2 7 4 10 11 3 15 15 25 35 29 28 30 28 27 26 25 23 22 20 20 19 18 17 15 14 13 11 10 9 8 7 7 7 6 5 5 4 3
8 7 6 10 19 19 25 25 22 12 12 7 10 8 4 12 7 19 31 30 28 26 27 26 28 26 25 24 22 22 21 21 19 18 17 16 15 14 12 11 10 9 9 8 7 6 5 4 3
14 6 11 14 20 21 23 24 21 9 3 11 11 11 9 7 21 33 31 30 29 25 23 25 30 27 26 25 23 23 23 22 21 20 20 18 16 15 14 13 12 11 11 10 9 7 6 6 4
6 5 10 14 21 21 20 23 24 7 12 13 8 14 12 19 26 25 29 28 27 27 25 24 26 29 27 26 25 24 23 23 22 22 22 20 20 18 17 16 14 13 13 12 11 10 9 8 7
15 12 17 18 17 20 21 19 18 9 15 18 14 15 13 17 25 28 28 28 28 26 25 21 27 30 29 28 27 26 25 25 24 24 23 22 21 20 19 18 17 16 16 15 14 13 13 11 9
14 14 22 19 20 22 18 20 15 17 19 18 20 14 13 13 21 32 29 29 29 29 24 19 21 29 32 30 29 27 27 27 26 25 24 24 23 23 21 20 20 19 18 18 18 17 15 13 12
19 16 18 25 23 18 19 21 22 11 15 18 20 12 10 7 24 24 29 30 30 32 32 25 20 21 27 24 28 30 29 28 28 27 27 27 26 25 23 24 23 23 21 21 21 19 17 15 14
17 17 28 24 22 19 18 19 23 13 19 18 21 7 6 19 27 19 17 20 24 27 30 30 25 22 24 23 23 25 31 32 32 32 31 31 29 24 24 24 25 24 23 22 22 21 18 17 14
23 27 25 27 26 23 26 22 13 16 21 20 17 15 8 8 15 17 20 24 22 24 29 30 28 23 22 24 28 28 26 29 32 33 31 30 29 27 26 25 26 28 25 24 23 23 22 18 15
27 30 28 29 24 27 28 25 17 16 20 24 19 20 9 14 13 16 17 20 19 25 13 18 16 32 28 25 25 27 25 26 27 30 31 28 30 28 27 27 26 31 26 27 23 24 22 20 19
29 29 29 28 26 24 27 29 26 18 21 23 25 21 16 16 8 14 13 8 12 9 20 28 39 34 30 26 21 24 24 26 28 27 29 34 29 30 29 27 28 29 28 26 28 25 25 24 20
22 27 29 28 29 26 28 29 23 26 20 23 24 25 8 8 15 10 11 9 5 8 4 5 26 18 18 21 26 19 28 24 27 29 30 35 36 30 29 32 30 26 30 27 28 29 27 29 25
19 26 26 28 26 27 26 26 30 24 22 24 23 23 20 20 23 18 19 17 15 15 13 11 11 21 22 22 22 27 21 28 24 30 29 32 37 34 33 29 32 32 24 27 28 27 27 22 23
22 23 20 25 27 28 23 29 29 26 19 22 24 23 21 21 20 22 17 18 13 18 14 13 14 15 20 23 23 22 25 24 27 30 24 30 35 36 31 30 29 28 30 24 29 25 24 21 18
16 20 24 26 24 23 26 31 27 23 21 23 21 21 22 20 21 24 28 27 26 28 27 24 16 14 16 24 21 22 24 25 25 23 27 26 32 36 32 27 26 28 27 30 24 23 21 19 17
17 20 20 26 24 25 25 29 29 25 25 23 21 21 23 22 26 22 26 28 27 24 18 18 16 14 13 18 22 23 24 27 27 27 23 25 31 31 35 26 28 24 29 26 24 24 21 20 16
19 21 25 26 26 26 22 25 27 23 24 25 20 19 23 26 22 25 32 27 36 27 23 22 20 20 18 16 19 23 24 26 26 26 24 22 26 30 31 32 24 30 25 27 25 22 23 19 21
20 23 25 24 24 21 24 28 29 21 21 20 21 22 22 20 18 21 24 23 23 25 25 23 23 25 25 25 29 26 24 27 26 24 22 21 23 27 27 27 25 27 23 26 23 24 18 17 19
20 19 22 23 20 20 24 26 26 27 24 19 20 20 21 20 20 19 14 13 12 16 22 25 28 29 27 31 29 28 30 25 12 23 22 22 21 22 27 27 26 23 28 23 24 22 20 17 20
21 20 23 22 19 17 18 18 21 22 24 21 23 23 17 16 17 18 16 12 14 11 13 16 23 29 31 31 27 26 22 17 18 18 19 20 20 21 23 23 29 18 28 21 25 22 24 23 14
25 23 21 22 22 21 22 15 21 21 24 23 20 22 20 16 18 22 20 12 17 21 24 27 28 30 32 31 32 29 23 20 18 18 19 21 20 22 23 25 27 17 23 24 26 23 24 21 14
22 23 25 22 18 17 24 20 22 19 22 24 22 19 22 23 24 19 18 25 23 25 26 25 33 37 34 32 29 27 25 22 20 18 19 18 20 23 23 25 26 19 20 18 24 23 20 16 14
14 15 13 15 15 17 22 21 18 23 23 27 23 21 19 19 17 16 21 20 22 30 31 33 28 28 30 30 25 29 23 29 17 25 21 18 19 21 24 24 26 21 21 15 16 17 13 14 10
10 6 7 12 16 18 20 15 17 20 22 23 23 24 19 14 14 16 11 11 16 19 24 23 21 23 25 27 27 24 27 21 20 22 20 19 21 23 24 27 25 21 18 15 14 14 13 10 11
19 13 12 12 17 16 18 24 20 22 22 21 24 23 17 15 14 10 7 10 12 14 19 22 20 22 23 23 23 22 24 22 24 22 24 25 25 24 26 24 21 19 17 14 13 11 10 13 14
24 18 10 1 5 17 17 21 14 16 16 21 22 19 22 14 9 9 8 7 9 12 16 23 21 20 20 20 21 21 23 20 25 26 27 25 22 24 23 20 18 16 13 11 9 10 14 12 13
11 10 6 7 6 10 14 12 8 21 24 27 27 19 4 8 11 11 8 6 11 12 12 13 14 18 20 21 22 23 20 21 25 26 26 25 24 23 20 18 14 12 12 11 12 7 8 11 12
19 16 11 9 14 13 12 18 16 21 26 30 33 8 15 6 1 9 7 5 4 11 15 13 15 17 20 20 23 24 26 24 24 28 27 23 22 20 18 17 15 15 10 10 9 9 9 12 15
Wind_Direction
253 245 264 261 242 231 251 240 255 268 245 199 251 311 308 22 24 93 130 124 140 149 154 163 166 162 165 170 172 178 179 181 183 181 181 181 177 171 172 173 177 179 177 169 173 175 144 139 125
241 234 243 276 239 245 246 234 245 248 270 128 80 322 305 297 121 118 105 125 150 150 159 167 170 168 168 174 178 183 186 187 188 189 187 189 193 184 189 191 191 192 190 182 184 172 161 154 134
247 256 254 227 237 248 264 252 219 208 208 107 145 214 230 178 131 130 125 133 149 152 163 171 174 176 172 178 184 187 193 193 196 197 196 199 200 198 199 201 199 195 197 191 183 174 164 166 156
239 221 252 265 251 250 248 278 311 159 135 173 203 179 228 64 100 135 135 141 154 153 166 176 179 182 180 183 188 193 197 198 198 205 205 205 207 207 207 206 202 202 199 192 189 192 177 189 190
261 279 241 248 248 256 273 277 288 308 128 203 211 233 221 105 116 138 141 143 144 149 164 180 184 186 186 187 192 199 203 205 204 208 211 211 214 215 211 211 207 205 205 200 198 200 205 209 215
214 241 253 252 253 255 258 265 284 245 286 298 249 216 213 158 132 148 149 151 152 152 165 177 189 191 192 195 197 203 206 211 212 214 217 216 217 215 214 213 210 210 206 206 208 208 217 223 227
244 247 249 256 256 271 280 275 269 267 253 244 243 263 231 146 154 156 163 162 156 155 167 174 182 197 198 199 202 205 211 214 216 219 219 220 220 219 216 216 215 213 208 207 212 215 220 224 234
223 242 256 257 266 271 270 271 261 267 258 256 248 232 231 167 176 160 173 173 165 160 166 173 179 190 200 203 205 208 214 219 219 221 222 223 223 223 221 220 220 218 213 211 215 220 223 226 232
252 249 248 247 250 267 280 289 287 247 262 263 271 265 19 280 162 169 184 183 178 164 166 171 178 189 191 198 209 210 216 220 224 226 226 224 223 223 224 224 223 221 218 216 218 221 224 229 237
234 243 241 245 257 256 264 255 273 270 268 255 244 266 73 111 156 200 192 196 179 159 160 168 179 185 186 193 205 215 217 220 223 224 225 223 223 220 224 226 223 226 224 221 223 225 225 231 234
224 244 247 252 257 255 268 276 265 269 264 254 243 248 183 217 201 211 187 211 181 179 170 167 175 185 182 189 205 209 214 222 225 224 221 226 220 216 219 220 226 223 223 225 226 227 225 226 235
242 240 246 256 264 279 279 286 275 260 272 287 285 235 212 222 227 218 206 208 202 202 77 74 243 180 184 188 199 210 205 216 218 222 221 214 219 216 214 215 218 220 217 222 219 225 227 223 225
253 251 252 251 250 259 273 270 272 257 262 280 287 284 217 216 231 246 232 313 15 72 153 177 183 182 186 190 201 200 201 213 215 216 221 218 212 212 215 217 214 214 213 220 217 221 222 221 226
264 261 262 261 261 255 247 258 260 252 247 264 275 279 218 228 282 252 273 271 311 307 274 200 167 187 193 201 207 210 213 212 215 215 220 217 210 214 212 215 218 216 207 211 221 216 222 216 223
266 273 275 265 263 255 257 258 248 254 252 250 258 266 272 196 210 232 237 243 234 242 261 267 264 202 210 214 213 217 217 222 221 217 214 225 213 209 212 215 216 217 213 208 217 218 222 220 227
279 281 262 251 252 255 260 256 248 252 246 245 254 266 265 267 243 231 226 244 214 219 232 228 227 212 215 218 220 223 225 223 230 227 225 222 221 209 210 211 216 216 221 220 219 216 213 216 221
243 258 262 269 252 249 238 253 249 255 251 244 237 257 265 261 264 227 233 239 239 238 236 231 218 225 221 218 224 224 227 230 232 232 228 222 219 214 206 211 216 213 217 226 224 218 214 222 219
269 259 252 252 257 265 257 242 248 242 250 244 240 229 247 252 251 257 223 222 232 217 190 196 204 212 232 220 218 225 230 238 233 233 234 221 214 210 203 207 217 218 213 220 224 214 219 215 223
290 284 278 281 292 299 290 266 261 239 238 238 239 238 233 250 259 256 244 234 225 203 194 193 201 217 225 229 235 237 231 233 233 230 226 228 214 200 199 205 218 216 216 214 220 213 212 209 229
274 276 278 285 290 291 285 281 280 271 256 243 232 227 240 257 252 243 255 228 210 184 190 195 203 212 220 238 247 241 235 233 230 219 216 219 207 195 198 198 213 212 219 214 217 209 196 212 231
276 271 276 282 290 283 283 280 274 272 277 282 283 265 224 229 255 262 263 237 191 196 199 201 210 213 221 237 239 244 245 251 253 200 203 207 200 193 197 207 210 218 209 212 210 200 192 211 222
278 279 281 282 282 277 277 275 262 269 264 253 257 269 250 233 242 263 267 256 242 225 227 219 219 221 227 230 228 226 221 222 222 197 189 186 192 196 203 207 210 225 199 210 204 202 209 222 209
284 289 281 279 277 281 269 261 268 269 271 258 255 246 255 253 241 238 250 264 268 253 252 248 237 223 220 224 225 225 225 214 214 190 181 179 191 205 205 208 211 218 199 209 195 199 208 214 212
304 293 290 272 270 260 262 258 266 264 261 265 267 258 233 233 241 237 226 237 244 252 250 240 225 222 219 214 217 214 221 211 194 174 152 169 187 205 205 206 207 202 204 215 194 196 201 205 218
266 273 267 253 248 256 254 251 257 268 266 262 267 267 278 275 235 229 226 222 224 228 236 238 218 203 202 198 201 215 225 211 206 162 154 163 173 191 203 204 202 201 203 201 185 186 197 201 211
263 235 260 269 273 278 295 289 292 306 299 283 274 276 262 287 267 237 231 226 221 218 221 222 205 185 186 194 203 211 214 206 167 153 158 167 180 193 196 191 195 195 191 184 179 187 187 201 206
285 261 180 283 282 279 276 285 268 266 271 263 267 253 255 256 255 256 229 236 237 240 196 195 189 185 196 203 198 194 197 190 157 162 166 175 181 187 188 189 182 180 172 180 183 186 207 205 192
281 295 289 201 277 275 258 252 277 262 272 246 259 252 240 233 227 238 243 250 246 230 193 184 189 172 175 175 181 183 184 183 169 168 169 171 176 173 174 172 171 171 174 185 194 200 198 197 191
274 238 290 343 272 278 264 267 274 8 355 329 313 270 151 259 231 233 245 239 228 146 124 138 163 163 160 171 174 165 175 162 146 152 159 158 157 164 163 162 164 178 196 200 196 206 178 190 197
286 300 190 267 284 257 276 273 23 12 348 337 327 71 300 254 79 263 265 272 165 179 148 144 154 152 152 151 148 143 135 135 134 134 142 148 148 154 164 169 179 186 180 197 200 220 224 215 203